Content
SEND FEEDBACK

Daily
Averages
Monthly
Summary
Canada

VANCOUVER, BRITISH COLUMBIA


Home > North America > Canada > British Columbia
Elevation: 7 feet     Latitude: 49 11N     Longitude: 123 10W

WEATHER
 
SELECT A DAY
Number of Records: 253,227;   Date Range: 5/15/97 - 10/29/14
 
SHARE

PRINT THIS DATA

[ ← Previous Day ]
WEATHER ALMANAC - FEBRUARY 17, 2013
[ Next Day → ]
[ °C ]   °F
Weather ElementAverageHighLow
Temperature40.3 °F44.6 °F (11:15 am)35.6 °F (8:35 pm)
Dewpoint37.4 °F39.2 °F (1:55 am)35.6 °F (8:35 am)
Humidity89.8 %100 % (6:15 am)76 % (11:15 am)
Barometer30.18 in30.22 in (9:35 am)30.10 in (11:55 pm)
Wind Speed1.2 mph8.1 mph (11:15 am)
Weather ElementAverage
Visibility9.7 mi
Wind DirectionNNE (37.2 °)

Weather ElementTotal
Precipitation0.02 in
Heating Degree Days24.9 (Base 65)
Averaged from 65 records on February 17, 2013
WEATHER CONDITIONS BREAKOUT
WIND DIRECTION BREAKOUT
WEATHER BY HOUR - FEBRUARY 17, 2013
[ °C ]   °F
Local TimeTemperatureDewpointHumidityBarometerVisibilityWind DirectionWind SpeedGust SpeedPrecipitationEventsConditions
12:35 AM39.2 °F37.4 °F93 %30.16 in10.0 miCalmPartly Cloudy
12:55 AM41.0 °F37.4 °F87 %30.17 in10.0 miCalmMostly Cloudy
1:15 AM39.2 °F37.4 °F93 %30.17 in10.0 miCalmOvercast
1:35 AM41.0 °F37.4 °F87 %30.18 in10.0 miCalmOvercast
1:55 AM41.0 °F39.2 °F93 %30.18 in10.0 miCalmOvercast
2:15 AM41.0 °F39.2 °F93 %30.18 in10.0 miCalmOvercast
2:35 AM41.0 °F39.2 °F93 %30.18 in10.0 miCalmOvercast
2:55 AM41.0 °F39.2 °F93 %30.18 in10.0 miCalmOvercast
3:15 AM41.0 °F39.2 °F93 %30.18 in10.0 miCalmOvercast
4:15 AM41.0 °F39.2 °F93 %30.18 in10.0 miCalmRainLight Rain
4:35 AM41.0 °F39.2 °F93 %30.18 in10.0 miCalmScattered Clouds
5:15 AM41.0 °F39.2 °F93 %30.19 in8.0 miCalmRainLight Rain
5:35 AM41.0 °F39.2 °F93 %30.19 in9.0 miCalmRainLight Rain
5:55 AM41.0 °F39.2 °F93 %30.19 in5.0 miCalmRainLight Rain
6:15 AM39.2 °F39.2 °F100 %30.19 in10.0 miCalmMostly Cloudy
6:35 AM39.2 °F39.2 °F100 %30.19 in10.0 miCalmMostly Cloudy
6:55 AM39.2 °F39.2 °F100 %30.19 in10.0 miCalmOvercast
7:15 AM39.2 °F39.2 °F100 %30.19 in10.0 miCalmOvercast
7:35 AM39.2 °F39.2 °F100 %30.20 in8.0 miWSW (250°)4.6 mphRainLight Rain
7:55 AM39.2 °F37.4 °F93 %30.20 in5.0 miCalm0.02 inRainLight Rain
8:15 AM39.2 °F37.4 °F93 %30.20 in10.0 miCalmOvercast
8:35 AM39.2 °F35.6 °F87 %30.21 in10.0 miEast (100°)3.5 mphOvercast
8:55 AM39.2 °F35.6 °F87 %30.21 in10.0 miCalmOvercast
9:15 AM39.2 °F35.6 °F87 %30.21 in10.0 miESE (110°)3.5 mphMostly Cloudy
9:35 AM41.0 °F37.4 °F87 %30.22 in10.0 miNorthOvercast
9:55 AM41.0 °F35.6 °F81 %30.22 in10.0 miCalmOvercast
10:15 AM41.0 °F37.4 °F87 %30.21 in10.0 miCalmOvercast
10:55 AM42.8 °F39.2 °F87 %30.21 in10.0 miNorthMostly Cloudy
11:15 AM44.6 °F37.4 °F76 %30.21 in10.0 miSSW (200°)8.1 mphMostly Cloudy
11:35 AM44.6 °F37.4 °F76 %30.21 in10.0 miSouth (190°)6.9 mphMostly Cloudy
11:55 AM44.6 °F37.4 °F76 %30.21 in10.0 miNorthMostly Cloudy
12:15 PM44.6 °F37.4 °F76 %30.21 in10.0 miSSE (160°)3.5 mphOvercast
12:35 PM44.6 °F37.4 °F76 %30.20 in10.0 miSouth (190°)8.1 mphMostly Cloudy
12:55 PM44.6 °F37.4 °F76 %30.20 in10.0 miSSW (200°)8.1 mphScattered Clouds
1:15 PM44.6 °F37.4 °F76 %30.20 in10.0 miSouth (190°)6.9 mphClear
1:35 PM44.6 °F37.4 °F76 %30.20 in10.0 miSouth (190°)8.1 mphScattered Clouds
1:55 PM44.6 °F37.4 °F76 %30.20 in10.0 miWNW (300°)4.6 mphMostly Cloudy
2:15 PM39.2 °F37.4 °F93 %30.20 in7.0 miNNW (340°)8.1 mphRainLight Rain
2:35 PM41.0 °F37.4 °F87 %30.19 in10.0 miCalmRainLight Rain
2:55 PM41.0 °F37.4 °F87 %30.19 in10.0 miCalmMostly Cloudy
3:15 PM41.0 °F37.4 °F87 %30.19 in10.0 miCalmMostly Cloudy
3:35 PM41.0 °F37.4 °F87 %30.19 in10.0 miCalmMostly Cloudy
3:55 PM41.0 °F37.4 °F87 %30.18 in10.0 miCalmMostly Cloudy
4:15 PM42.8 °F35.6 °F76 %30.18 in10.0 miCalmMostly Cloudy
4:35 PM42.8 °F35.6 °F76 %30.17 in10.0 miCalmMostly Cloudy
4:55 PM42.8 °F37.4 °F81 %30.17 in10.0 miCalmMostly Cloudy
5:15 PM41.0 °F39.2 °F93 %30.16 in10.0 miCalmPartly Cloudy
5:35 PM41.0 °F39.2 °F93 %30.16 in10.0 miCalmPartly Cloudy
5:55 PM39.2 °F37.4 °F93 %30.16 in10.0 miCalmClear
6:15 PM39.2 °F37.4 °F93 %30.15 in10.0 miCalmClear
6:35 PM39.2 °F37.4 °F93 %30.15 in10.0 miCalmClear
6:55 PM37.4 °F35.6 °F93 %30.15 in10.0 miCalmClear
7:15 PM37.4 °F35.6 °F93 %30.15 in10.0 miCalmClear
7:35 PM37.4 °F35.6 °F93 %30.15 in10.0 miCalmClear
7:55 PM37.4 °F35.6 °F93 %30.15 in10.0 miCalmClear
8:15 PM37.4 °F35.6 °F93 %30.15 in10.0 miCalmClear
8:35 PM35.6 °F35.6 °F100 %30.15 in10.0 miCalmClear
8:55 PM35.6 °F35.6 °F100 %30.14 in10.0 miCalmPartly Cloudy
9:15 PM35.6 °F35.6 °F100 %30.14 in10.0 miCalmMostly Cloudy
9:35 PM37.4 °F35.6 °F93 %30.14 in10.0 miCalmOvercast
10:15 PM37.4 °F37.4 °F100 %30.13 in10.0 miCalmOvercast
10:35 PM37.4 °F37.4 °F100 %30.13 in10.0 miCalmOvercast
11:15 PM37.4 °F37.4 °F100 %30.11 in10.0 miCalmMostly Cloudy
11:35 PM37.4 °F35.6 °F93 %30.11 in10.0 miCalmPartly Cloudy
11:55 PM35.6 °F35.6 °F100 %30.10 in10.0 miCalmClear
Hourly data recorded from CZBB, located miles away from Vancouver, British Columbia







STORIES FROM OUR PARTNERS